OpenBCM V1.13 (Linux)

Packet Radio Mailbox

DB0FHN

[JN59NK Nuernberg]

 Login: GUEST





  
CX2SA  > KEPS     18.03.05 07:37l 95 Lines 2471 Bytes #999 (0) @ AMSAT
BID : ORB05076.M
Read: OE7HNT GUEST
Subj: Orbital Elements  05076.MISC
Path: DB0FHN<DB0MRW<DB0WUE<DK0WUE<7M3TJZ<EA5AKC<CX2SA
Sent: 050318/0533Z @:CX2SA.LAV.URY.SA #:24365 [Minas] FBB7.00e $:ORB05076.M
From: CX2SA@CX2SA.LAV.URY.SA
To  : KEPS@AMSAT


HR AMSAT ORBITAL ELEMENTS FOR MANNED AND MISCELLANEOUS SATELLITES
FROM WA5QGD FORT WORTH,TX March 17, 2005
SEND SUBSCRIBE/UNSUBSCRIBE TO majordomo@amsat.org ONLY
BID: ORB05076.M
TO ALL RADIO AMATEURS BT

Satellite: HUBBLE
Catalog number: 20580
Epoch time:      05075.55427895
Element set:    0296
Inclination:      028.4667 deg
RA of node:       152.3075 deg
Eccentricity:    0.0003332
Arg of perigee:   011.1728 deg
Mean anomaly:     348.8949 deg
Mean motion:   14.99631645 rev/day
Decay rate:      1.098e-05 rev/day^2
Epoch rev:           61632
Checksum:              318

Satellite: UARS
Catalog number: 21701
Epoch time:      05075.72832216
Element set:    0402
Inclination:      056.9790 deg
RA of node:       204.8375 deg
Eccentricity:    0.0006172
Arg of perigee:   112.8162 deg
Mean anomaly:     247.3527 deg
Mean motion:   15.03781537 rev/day
Decay rate:       5.76e-06 rev/day^2
Epoch rev:           73958
Checksum:              296

Satellite: PO-34
Catalog number: 25520
Epoch time:      05075.69810869
Element set:    0133
Inclination:      028.4580 deg
RA of node:       210.5761 deg
Eccentricity:    0.0005125
Arg of perigee:   300.5075 deg
Mean anomaly:     059.5011 deg
Mean motion:   15.16159642 rev/day
Decay rate:      1.428e-05 rev/day^2
Epoch rev:           35253
Checksum:              277

Satellite: ISS
Catalog number: 25544
Epoch time:      05075.85712817
Element set:    0028
Inclination:      051.6478 deg
RA of node:       013.2713 deg
Eccentricity:    0.0003811
Arg of perigee:   197.9345 deg
Mean anomaly:     272.7713 deg
Mean motion:   15.70967346 rev/day
Decay rate:     2.4828e-04 rev/day^2
Epoch rev:           36116
Checksum:              310

Satellite: OO-38
Catalog number: 26063
Epoch time:      05075.57910200
Element set:    0308
Inclination:      100.2265 deg
RA of node:       278.6143 deg
Eccentricity:    0.0036669
Arg of perigee:   316.3151 deg
Mean anomaly:     043.5134 deg
Mean motion:   14.35706580 rev/day
Decay rate:       -1.5e-07 rev/day^2
Epoch rev:           26901
Checksum:              272

Satellite: NO-45
Catalog number: 26932
Epoch time:      05075.93224099
Element set:    0987
Inclination:      067.0566 deg
RA of node:       105.0465 deg
Eccentricity:    0.0009081
Arg of perigee:   262.8515 deg
Mean anomaly:     097.1584 deg
Mean motion:   14.29476086 rev/day
Decay rate:       1.92e-06 rev/day^2
Epoch rev:           18061
Checksum:              327



Read previous mail | Read next mail


 14.07.2026 11:08:43lGo back Go up